Wolf Creek Pass, CO

12:14 AM MST on December 13, 2017 (GMT -0700)
Wolf Creek Pass

Weather History for KCPW - March, 2013

Change the Weather History Date:

Sunday, March 3, 2013

  Actual Average (KALS) Record (KALS)
Temperature  
Mean Temperature 24 °F -  
Max Temperature 30 °F 43 °F 62 °F (1946)
Min Temperature 19 °F 16 °F -17 °F (1939)
Degree Days  
Heating Degree Days 40    
Moisture  
Dew Point 16 °F    
Average Humidity 76    
Maximum Humidity 100    
Minimum Humidity 51    
Precipitation  
Precipitation 0.00 in - - ()
Sea Level Pressure  
Sea Level Pressure 30.12 in    
Wind  
Wind Speed 23 mph (SW)    
Max Wind Speed 37 mph    
Max Gust Speed 46 mph    
Visibility 9 miles    
Events Snow    
Averages and records for this station are not official NWS values.
T = Trace of Precipitation, MM = Missing Value Source: NWS Daily Summary

Daily Weather History Graph

Daily Weather History Graph

Search for Another Location

Airport or City:

Trip Planner

Search our weather history database for the weather conditions in past years. The results will help you decide how hot, cold, wet, or windy it might be!

Date:

Astronomy

Mar. 03, 2013 Rise Set
Actual Time 6:35 AM MST 6:03 PM MST
Civil Twilight 6:09 AM MST 6:29 PM MST
Nautical Twilight 5:38 AM MST 6:59 PM MST
Astronomical Twilight 5:08 AM MST 7:30 PM MST
Moon No Moon Rise 10:00 AM MST (3/3)
Length of Visible Light 12h 20m
Length of Day
11h 28m
Waning Gibbous, 63% of the Moon is Illuminated
Mar 3
Waning Gibbous
Mar 4
Last Quarter
Mar 11
New
Mar 19
First Quarter
Mar 27
Full

Hourly Weather History & Observations

Time (MST) Temp. Windchill Dew Point Humidity Pressure Visibility Wind Dir Wind Speed Gust Speed Precip Events Conditions
12:04 AM 23.0 °F 8.0 °F 17.6 °F 80% 30.35 in 10.0 mi SW 20.7 mph 24.2 mph N/A   Clear
12:26 AM 23.0 °F 7.2 °F 17.6 °F 80% 30.34 in 10.0 mi SW 23.0 mph - N/A   Clear
12:46 AM 23.0 °F 8.7 °F 19.4 °F 86% 30.34 in 10.0 mi SW 18.4 mph - N/A   Clear
1:05 AM 23.0 °F 8.7 °F 19.4 °F 86% 30.33 in 10.0 mi SW 18.4 mph 24.2 mph N/A   Clear
1:24 AM 23.0 °F 8.3 °F 19.4 °F 86% 30.32 in 10.0 mi SW 19.6 mph 24.2 mph N/A   Clear
1:45 AM 23.0 °F 6.9 °F 19.4 °F 86% 30.31 in 10.0 mi SW 24.2 mph - N/A   Clear
2:04 AM 23.0 °F 6.9 °F 19.4 °F 86% 30.29 in 10.0 mi SW 24.2 mph 28.8 mph N/A   Clear
2:24 AM 23.0 °F 8.0 °F 19.4 °F 86% 30.29 in 10.0 mi SW 20.7 mph 29.9 mph N/A   Clear
2:45 AM 21.2 °F 5.2 °F 17.6 °F 86% 30.27 in 10.0 mi SW 21.9 mph 29.9 mph N/A   Clear
3:06 AM 21.2 °F 4.5 °F 17.6 °F 86% 30.26 in 10.0 mi SW 24.2 mph 28.8 mph N/A   Clear
3:25 AM 21.2 °F 6.4 °F 17.6 °F 86% 30.24 in 10.0 mi SW 18.4 mph 28.8 mph N/A   Clear
3:45 AM 21.2 °F 6.4 °F 17.6 °F 86% 30.24 in 10.0 mi SW 18.4 mph 27.6 mph N/A   Clear
4:03 AM 21.2 °F 4.5 °F 17.6 °F 86% 30.23 in 10.0 mi SW 24.2 mph 29.9 mph N/A   Clear
4:26 AM 21.2 °F 6.0 °F 15.8 °F 80% 30.22 in 10.0 mi SW 19.6 mph 28.8 mph N/A   Clear
5:05 AM 21.2 °F 5.2 °F 15.8 °F 80% 30.20 in 10.0 mi SW 21.9 mph 29.9 mph N/A   Clear
5:25 AM 21.2 °F 3.3 °F 15.8 °F 80% 30.19 in 10.0 mi SW 28.8 mph 34.5 mph N/A   Clear
5:45 AM 21.2 °F 3.9 °F 14.0 °F 74% 30.19 in 10.0 mi SW 26.5 mph 35.7 mph N/A   Clear
6:06 AM 21.2 °F 1.9 °F 14.0 °F 74% 30.17 in 10.0 mi SW 34.5 mph 39.1 mph N/A   Clear
6:25 AM 21.2 °F 1.4 °F 14.0 °F 74% 30.16 in 10.0 mi SW 36.8 mph 46.0 mph N/A   Clear
6:45 AM 23.0 °F 4.6 °F 12.2 °F 63% 30.17 in 10.0 mi SW 33.4 mph 41.4 mph N/A   Clear
7:05 AM 21.2 °F 3.3 °F 14.0 °F 74% 30.17 in 10.0 mi SW 28.8 mph 38.0 mph N/A   Clear
7:23 AM 21.2 °F 3.9 °F 14.0 °F 74% 30.17 in 10.0 mi SW 26.5 mph 33.4 mph N/A   Clear
7:43 AM 21.2 °F 3.0 °F 14.0 °F 74% 30.16 in 10.0 mi SW 29.9 mph 34.5 mph N/A   Clear
8:03 AM 23.0 °F 6.6 °F 14.0 °F 68% 30.15 in 10.0 mi SW 25.3 mph 35.7 mph N/A   Clear
8:23 AM 23.0 °F 6.0 °F 14.0 °F 68% 30.15 in 10.0 mi SW 27.6 mph 34.5 mph N/A   Clear
8:43 AM 24.8 °F 8.7 °F 14.0 °F 64% 30.14 in 10.0 mi SW 26.5 mph 35.7 mph N/A   Clear
9:04 AM 26.6 °F 11.4 °F 14.0 °F 59% 30.14 in 10.0 mi SW 25.3 mph 35.7 mph N/A   Clear
9:24 AM 26.6 °F 10.8 °F 14.0 °F 59% 30.14 in 10.0 mi SW 27.6 mph 40.3 mph N/A   Clear
9:43 AM 28.4 °F 13.0 °F 14.0 °F 55% 30.14 in 10.0 mi SW 28.8 mph 42.6 mph N/A   Clear
10:03 AM 28.4 °F 14.4 °F 12.2 °F 51% 30.14 in 10.0 mi SW 23.0 mph 43.7 mph N/A   Scattered Clouds
10:23 AM 28.4 °F 14.4 °F 12.2 °F 51% 30.14 in 10.0 mi SSW 23.0 mph 34.5 mph N/A   Scattered Clouds
10:44 AM 28.4 °F 15.8 °F 14.0 °F 55% 30.13 in 10.0 mi SW 18.4 mph 38.0 mph N/A   Scattered Clouds
11:04 AM 28.4 °F 15.1 °F 14.0 °F 55% 30.13 in 10.0 mi SW 20.7 mph 31.1 mph N/A   Scattered Clouds
11:23 AM 30.2 °F 16.8 °F 14.0 °F 51% 30.12 in 10.0 mi SW 23.0 mph 33.4 mph N/A   Scattered Clouds
11:44 AM 28.4 °F 15.4 °F 14.0 °F 55% 30.12 in 10.0 mi SW 19.6 mph 27.6 mph N/A   Mostly Cloudy
12:04 PM 28.4 °F 16.2 °F 14.0 °F 55% 30.13 in 10.0 mi SSW 17.3 mph 33.4 mph N/A   Mostly Cloudy
12:23 PM 26.6 °F 12.0 °F 14.0 °F 59% 30.11 in 10.0 mi SW 23.0 mph 29.9 mph N/A   Overcast
12:43 PM 28.4 °F 14.4 °F 17.6 °F 64% 30.10 in 10.0 mi SW 23.0 mph 34.5 mph N/A   Mostly Cloudy
1:03 PM 26.6 °F 9.6 °F 17.6 °F 69% 30.08 in 10.0 mi SW 33.4 mph 43.7 mph N/A   Scattered Clouds
1:22 PM 26.6 °F 12.7 °F 17.6 °F 69% 30.06 in 10.0 mi SSW 20.7 mph 35.7 mph N/A   Scattered Clouds
1:45 PM 26.6 °F 13.8 °F 17.6 °F 69% 30.05 in 10.0 mi SW 17.3 mph 34.5 mph N/A   Mostly Cloudy
2:04 PM 26.6 °F 10.3 °F 17.6 °F 69% 30.04 in 10.0 mi SSW 29.9 mph 40.3 mph N/A   Overcast
2:24 PM 26.6 °F 12.0 °F 17.6 °F 69% 30.05 in 10.0 mi SW 23.0 mph 43.7 mph N/A   Overcast
2:44 PM 24.8 °F 9.6 °F 15.8 °F 69% 30.03 in 10.0 mi SW 23.0 mph 38.0 mph N/A   Overcast
3:04 PM 24.8 °F 7.9 °F 15.8 °F 69% 30.03 in 10.0 mi SW 29.9 mph 41.4 mph N/A   Overcast
3:24 PM 23.0 °F 8.0 °F 15.8 °F 74% 30.03 in 10.0 mi SSW 20.7 mph 34.5 mph N/A   Overcast
3:46 PM 23.0 °F 6.6 °F 15.8 °F 74% 30.03 in 10.0 mi SW 25.3 mph 35.7 mph N/A   Overcast
4:03 PM 23.0 °F 6.9 °F 15.8 °F 74% 30.03 in 10.0 mi SSW 24.2 mph 38.0 mph N/A   Overcast
4:23 PM 23.0 °F 7.2 °F 15.8 °F 74% 30.03 in 10.0 mi SSW 23.0 mph 32.2 mph N/A   Overcast
4:45 PM 23.0 °F 7.6 °F 15.8 °F 74% 30.02 in 4.0 mi SW 21.9 mph 29.9 mph N/A Snow Light Snow
5:06 PM 21.2 °F 4.5 °F 15.8 °F 80% 30.01 in 10.0 mi SW 24.2 mph 38.0 mph N/A   Overcast
5:45 PM 21.2 °F 4.2 °F 14.0 °F 74% 30.02 in 10.0 mi SW 25.3 mph 35.7 mph N/A   Overcast
6:04 PM 21.2 °F 5.2 °F 15.8 °F 80% 30.02 in 10.0 mi SW 21.9 mph 32.2 mph N/A   Overcast
6:23 PM 21.2 °F 4.5 °F 15.8 °F 80% 30.01 in 10.0 mi SSW 24.2 mph 32.2 mph N/A   Overcast
6:43 PM 21.2 °F 5.6 °F 15.8 °F 80% 30.02 in 7.0 mi SW 20.7 mph 33.4 mph N/A Snow Light Snow
7:04 PM 19.4 °F 2.1 °F 15.8 °F 86% 30.02 in 7.0 mi SW 24.2 mph 33.4 mph N/A Snow Light Snow
7:26 PM 19.4 °F 5.5 °F 17.6 °F 93% 30.02 in 2.0 mi SW 15.0 mph 24.2 mph N/A Snow Light Snow
7:46 PM 19.4 °F 4.5 °F 17.6 °F 93% 30.02 in 5.0 mi SW 17.3 mph 21.9 mph N/A Snow Light Snow
8:24 PM 19.4 °F 4.5 °F 17.6 °F 93% 30.01 in 10.0 mi SW 17.3 mph 21.9 mph N/A Snow Light Snow
8:45 PM 19.4 °F 5.5 °F 17.6 °F 93% 30.01 in 4.0 mi SW 15.0 mph 23.0 mph N/A Snow Light Snow
9:05 PM 19.4 °F 4.5 °F 17.6 °F 93% 30.00 in 2.0 mi SW 17.3 mph 23.0 mph N/A Snow Light Snow
9:26 PM 19.4 °F 4.1 °F 19.4 °F 100% 30.00 in 4.0 mi SW 18.4 mph 26.5 mph N/A Snow Light Snow
9:47 PM 19.4 °F 4.5 °F 17.6 °F 93% 30.00 in 10.0 mi SW 17.3 mph 28.8 mph N/A   Overcast
10:06 PM 19.4 °F 4.1 °F 17.6 °F 93% 30.00 in 10.0 mi SW 18.4 mph 25.3 mph N/A   Overcast
10:24 PM 19.4 °F 4.5 °F 17.6 °F 93% 29.99 in 5.0 mi SW 17.3 mph 24.2 mph N/A Snow Light Snow
10:44 PM 19.4 °F 5.0 °F 17.6 °F 93% 29.99 in 3.0 mi SW 16.1 mph 23.0 mph N/A Snow Light Snow
11:04 PM 19.4 °F 4.5 °F 17.6 °F 93% 29.98 in 5.0 mi SW 17.3 mph 28.8 mph N/A Snow Light Snow
11:26 PM 19.4 °F 5.5 °F 17.6 °F 93% 29.97 in 3.0 mi SW 15.0 mph 27.6 mph N/A Snow Light Snow
11:45 PM 19.4 °F 2.8 °F 17.6 °F 93% 29.97 in 1.5 mi SSW 21.9 mph 32.2 mph N/A Snow Light Snow